North Clarendon, VT

5:48 AM EST on February 25, 2017 (GMT -0500)
Rutland State

Weather History for KRUT - September, 2013

Change the Weather History Date:

Tuesday, September 17, 2013

  Actual Average Record
Temperature  
Mean Temperature 47 °F -  
Max Temperature 61 °F - 83 °F (1991)
Min Temperature 32 °F - 30 °F (1959)
Degree Days  
Heating Degree Days 18    
Month to date heating degree days 128  
Since 1 July heating degree days 199  
Cooling Degree Days 0    
Month to date cooling degree days 39  
Year to date cooling degree days 449  
Moisture  
Dew Point 38 °F    
Average Humidity 76    
Maximum Humidity 100    
Minimum Humidity 51    
Precipitation  
Precipitation 0.00 in - 1.87 in (1999)
Month to date precipitation 2.50  
Year to date precipitation 19.37  
Sea Level Pressure  
Sea Level Pressure 30.39 in    
Wind  
Wind Speed 5 mph (SE)    
Max Wind Speed 10 mph    
Max Gust Speed -    
Visibility 10 miles    
Events      
T = Trace of Precipitation, MM = Missing Value Source: NWS Daily Summary

Daily Weather History Graph

Daily Weather History Graph

Search for Another Location

Airport or City:

Trip Planner

Search our weather history database for the weather conditions in past years. The results will help you decide how hot, cold, wet, or windy it might be!

Date:

Astronomy

Sep. 17, 2013 Rise Set
Actual Time 6:33 AM EDT 6:57 PM EDT
Civil Twilight 6:04 AM EDT 7:26 PM EDT
Nautical Twilight 5:31 AM EDT 8:00 PM EDT
Astronomical Twilight 4:56 AM EDT 8:34 PM EDT
Moon 5:44 PM EDT (9/17) 4:22 AM EDT (9/17)
Length of Visible Light 13h 21m
Length of Day
12h 24m
Waxing Gibbous, 96% of the Moon is Illuminated
Sep 17
Waxing Gibbous
Sep 19
Full
Sep 26
Last Quarter
Oct 4
New
Oct 11
First Quarter

Hourly Weather History & Observations

Time (EDT) Temp. Windchill Dew Point Humidity Pressure Visibility Wind Dir Wind Speed Gust Speed Precip Events Conditions
12:15 AM 37.4 °F 34.9 °F 35.6 °F 93% 30.33 in 10.0 mi SE 3.5 mph - N/A   Clear
12:35 AM 35.6 °F 32.8 °F 33.8 °F 93% 30.33 in 10.0 mi SE 3.5 mph - N/A   Clear
12:55 AM 35.6 °F 31.7 °F 33.8 °F 93% 30.34 in 10.0 mi SE 4.6 mph - N/A   Clear
1:15 AM 35.6 °F 31.7 °F 33.8 °F 93% 30.34 in 10.0 mi SE 4.6 mph - N/A   Clear
1:35 AM 35.6 °F 30.7 °F 33.8 °F 93% 30.35 in 10.0 mi SSE 5.8 mph - N/A   Clear
1:55 AM 35.6 °F 31.7 °F 33.8 °F 93% 30.35 in 10.0 mi SSE 4.6 mph - N/A   Clear
2:15 AM 35.6 °F 31.7 °F 33.8 °F 93% 30.35 in 10.0 mi SE 4.6 mph - N/A   Clear
2:35 AM 35.6 °F - 33.8 °F 93% 30.35 in 10.0 mi Calm Calm - N/A   Clear
2:55 AM 33.8 °F 29.6 °F 33.8 °F 100% 30.35 in 10.0 mi SE 4.6 mph - N/A   Clear
3:15 AM 33.8 °F - 32.0 °F 93% 30.36 in 10.0 mi Calm Calm - N/A   Clear
3:35 AM 35.6 °F 30.7 °F 32.0 °F 87% 30.36 in 10.0 mi SE 5.8 mph - N/A   Clear
3:55 AM 35.6 °F - 32.0 °F 87% 30.37 in 10.0 mi Calm Calm - N/A   Clear
4:15 AM 33.8 °F - 32.0 °F 93% 30.37 in 10.0 mi Calm Calm - N/A   Clear
4:35 AM 33.8 °F 29.6 °F 30.2 °F 87% 30.37 in 10.0 mi SE 4.6 mph - N/A   Clear
4:55 AM 33.8 °F 30.8 °F 30.2 °F 87% 30.38 in 10.0 mi SE 3.5 mph - N/A   Clear
5:15 AM 33.8 °F - 32.0 °F 93% 30.39 in 10.0 mi Calm Calm - N/A   Clear
5:35 AM 33.8 °F 28.6 °F 30.2 °F 87% 30.39 in 10.0 mi SE 5.8 mph - N/A   Clear
5:55 AM 33.8 °F - 30.2 °F 87% 30.40 in 10.0 mi Calm Calm - N/A   Clear
6:15 AM 33.8 °F 28.6 °F 30.2 °F 87% 30.41 in 10.0 mi SSE 5.8 mph - N/A   Clear
6:35 AM 33.8 °F 29.6 °F 32.0 °F 93% 30.42 in 10.0 mi SE 4.6 mph - N/A   Clear
6:55 AM 32.0 °F 26.4 °F 30.2 °F 93% 30.43 in 10.0 mi ESE 5.8 mph - N/A   Clear
7:15 AM 33.8 °F 29.6 °F 32.0 °F 93% 30.43 in 10.0 mi East 4.6 mph - N/A   Clear
7:35 AM 35.6 °F 31.7 °F 33.8 °F 93% 30.44 in 10.0 mi SE 4.6 mph - N/A   Clear
7:55 AM 35.6 °F 31.7 °F 33.8 °F 93% 30.44 in 10.0 mi SE 4.6 mph - N/A   Clear
8:15 AM 37.4 °F - 33.8 °F 87% 30.45 in 10.0 mi Calm Calm - N/A   Clear
8:35 AM 37.4 °F - 35.6 °F 93% 30.45 in 10.0 mi Calm Calm - N/A   Clear
8:55 AM 39.2 °F - 37.4 °F 93% 30.46 in 10.0 mi Calm Calm - N/A   Clear
9:15 AM 42.8 °F - 37.4 °F 81% 30.46 in 10.0 mi Calm Calm - N/A   Clear
9:35 AM 42.8 °F - 37.4 °F 81% 30.47 in 10.0 mi Calm Calm - N/A   Clear
9:55 AM 44.6 °F 40.7 °F 39.2 °F 81% 30.47 in 10.0 mi North 6.9 mph - N/A   Clear
10:15 AM 46.4 °F 43.5 °F 37.4 °F 71% 30.47 in 10.0 mi North 5.8 mph - N/A   Clear
10:35 AM 48.2 °F - 37.4 °F 66% 30.47 in 10.0 mi NNW 8.1 mph - N/A   Clear
10:55 AM 48.2 °F - 37.4 °F 66% 30.46 in 10.0 mi NNW 6.9 mph - N/A   Clear
11:15 AM 51.8 °F - 39.2 °F 62% 30.45 in 10.0 mi NNW 5.8 mph - N/A   Clear
11:35 AM 51.8 °F - 39.2 °F 62% 30.45 in 10.0 mi NNW 4.6 mph - N/A   Clear
11:55 AM 53.6 °F - 37.4 °F 54% 30.45 in 10.0 mi WNW 5.8 mph - N/A   Clear
12:15 PM 53.6 °F - 37.4 °F 54% 30.45 in 10.0 mi North 3.5 mph - N/A   Clear
12:35 PM 55.4 °F - 37.4 °F 51% 30.44 in 10.0 mi NNW 4.6 mph - N/A   Clear
12:55 PM 55.4 °F - 39.2 °F 54% 30.43 in 10.0 mi WNW 4.6 mph - N/A   Clear
1:15 PM 55.4 °F - 37.4 °F 51% 30.42 in 10.0 mi Calm Calm - N/A   Clear
1:35 PM 55.4 °F - 39.2 °F 54% 30.41 in 10.0 mi North 6.9 mph - N/A   Clear
1:55 PM 57.2 °F - 39.2 °F 51% 30.41 in 10.0 mi Calm Calm - N/A   Clear
2:15 PM 57.2 °F - 39.2 °F 51% 30.41 in 10.0 mi North 5.8 mph - N/A   Clear
2:35 PM 57.2 °F - 39.2 °F 51% 30.39 in 10.0 mi Calm Calm - N/A   Clear
2:55 PM 59.0 °F - 41.0 °F 51% 30.39 in 10.0 mi West 5.8 mph - N/A   Clear
3:15 PM 59.0 °F - 41.0 °F 51% 30.38 in 10.0 mi NNW 3.5 mph - N/A   Clear
3:35 PM 59.0 °F - 41.0 °F 51% 30.37 in 10.0 mi West 4.6 mph - N/A   Clear
3:55 PM 59.0 °F - 41.0 °F 51% 30.37 in 10.0 mi NNW 6.9 mph - N/A   Clear
4:15 PM 59.0 °F - 41.0 °F 51% 30.36 in 10.0 mi Calm Calm - N/A   Clear
4:35 PM 59.0 °F - 41.0 °F 51% 30.36 in 10.0 mi NW 6.9 mph - N/A   Clear
4:55 PM 59.0 °F - 41.0 °F 51% 30.36 in 10.0 mi West 5.8 mph - N/A   Clear
5:15 PM 59.0 °F - 41.0 °F 51% 30.36 in 10.0 mi WNW 5.8 mph - N/A   Clear
5:35 PM 59.0 °F - 41.0 °F 51% 30.35 in 10.0 mi WNW 3.5 mph - N/A   Clear
5:55 PM 59.0 °F - 41.0 °F 51% 30.35 in 10.0 mi NW 4.6 mph - N/A   Clear
6:15 PM 57.2 °F - 42.8 °F 59% 30.35 in 10.0 mi NW 3.5 mph - N/A   Clear
6:35 PM 57.2 °F - 42.8 °F 59% 30.35 in 10.0 mi NNW 3.5 mph - N/A   Clear
6:55 PM 55.4 °F - 42.8 °F 63% 30.35 in 10.0 mi SSE 4.6 mph - N/A   Clear
7:15 PM 51.8 °F - 44.6 °F 76% 30.34 in 10.0 mi ESE 4.6 mph - N/A   Clear
7:35 PM 50.0 °F - 44.6 °F 82% 30.34 in 10.0 mi SSE 4.6 mph - N/A   Clear
7:55 PM 48.2 °F - 44.6 °F 87% 30.35 in 10.0 mi SE 4.6 mph - N/A   Clear
8:15 PM 48.2 °F - 44.6 °F 87% 30.36 in 10.0 mi Calm Calm - N/A   Clear
8:35 PM 48.2 °F - 44.6 °F 87% 30.36 in 10.0 mi SE 10.4 mph - N/A   Clear
8:55 PM 48.2 °F - 44.6 °F 87% 30.35 in 10.0 mi SE 10.4 mph - N/A   Clear
9:15 PM 46.4 °F 43.5 °F 44.6 °F 93% 30.36 in 10.0 mi SE 5.8 mph - N/A   Clear
9:35 PM 46.4 °F 41.1 °F 42.8 °F 87% 30.35 in 10.0 mi ESE 11.5 mph - N/A   Clear
9:55 PM 46.4 °F 43.5 °F 42.8 °F 87% 30.35 in 10.0 mi SSE 5.8 mph - N/A   Clear
10:15 PM 46.4 °F 44.3 °F 42.8 °F 87% 30.35 in 10.0 mi SSE 4.6 mph - N/A   Clear
10:35 PM 44.6 °F 38.8 °F 42.8 °F 93% 30.35 in 10.0 mi ESE 11.5 mph - N/A   Clear
10:55 PM 44.6 °F 40.7 °F 41.0 °F 87% 30.36 in 10.0 mi SSE 6.9 mph - N/A   Clear
11:15 PM 42.8 °F 37.0 °F 41.0 °F 93% 30.36 in 10.0 mi ESE 10.4 mph - N/A   Clear
11:35 PM 42.8 °F 39.3 °F 39.2 °F 87% 30.35 in 10.0 mi SSE 5.8 mph - N/A   Clear
11:55 PM 44.6 °F 40.7 °F 39.2 °F 81% 30.35 in 10.0 mi SSE 6.9 mph - N/A   Clear